This is the latest recevied weather packets stored in our database for station/object W3EJE-13. If no packets are shown the sender has not sent any weather packets the latest 10 day(s).
| Time | Temp. | Humidity | Pressure | Rain* | Wind** | Luminosity | Snow |
|---|---|---|---|---|---|---|---|
| 1778047303 | 14.44° C | 84% | 1010.6 hPa | 0 mm | - | 0 W/m² | - |
| 1778047001 | 14.44° C | 83% | 1010.7 hPa | 0 mm | - | 0 W/m² | - |
| 1778046697 | 14.44° C | 83% | 1010.7 hPa | 0 mm | - | 0 W/m² | - |
| 1778046395 | 13.89° C | 85% | 1010.7 hPa | 0 mm | - | 0 W/m² | - |
| 1778046090 | 13.89° C | 86% | 1010.8 hPa | 0 mm | - | 0 W/m² | - |
| 1778045788 | 13.89° C | 87% | 1010.8 hPa | 0 mm | - | 0 W/m² | - |
| 1778045487 | 13.89° C | 88% | 1011 hPa | 0 mm | - | 0 W/m² | - |
| 1778045185 | 13.89° C | 88% | 1010.9 hPa | 0 mm | - | 0 W/m² | - |
| 1778044882 | 13.89° C | 88% | 1010.8 hPa | 0 mm | - | 0 W/m² | - |
| 1778044579 | 13.89° C | 88% | 1010.9 hPa | 0 mm | - | 0 W/m² | - |
| 1778044276 | 13.89° C | 86% | 1010.6 hPa | 0 mm | - | 0 W/m² | - |
| 1778043974 | 14.44° C | 86% | 1010.7 hPa | 0 mm | - | 0 W/m² | - |
| 1778043671 | 14.44° C | 83% | 1010.9 hPa | 0 mm | - | 0 W/m² | - |
| 1778043368 | 14.44° C | 83% | 1011.1 hPa | 0 mm | - | 0 W/m² | - |
| 1778043064 | 13.89° C | 84% | 1011 hPa | 0 mm | - | 0 W/m² | - |
| 1778042762 | 13.89° C | 84% | 1011.4 hPa | 0 mm | - | 0 W/m² | - |
| 1778042458 | 13.89° C | 85% | 1011.1 hPa | 0 mm | - | 0 W/m² | - |
| 1778042155 | 13.89° C | 85% | 1011.4 hPa | 0 mm | - | 0 W/m² | - |
| 1778041854 | 14.44° C | 84% | 1011.5 hPa | 0 mm | - | 0 W/m² | - |
| 1778041553 | 14.44° C | 83% | 1011.3 hPa | 0 mm | - | 0 W/m² | - |
| 1778041250 | 13.89° C | 85% | 1011.7 hPa | 0 mm | - | 0 W/m² | - |
| 1778040949 | 13.89° C | 86% | 1011.5 hPa | 0 mm | - | 0 W/m² | - |
| 1778040645 | 13.89° C | 87% | 1011.6 hPa | 0 mm | - | 0 W/m² | - |
| 1778040343 | 13.89° C | 87% | 1011.4 hPa | 0 mm | - | 0 W/m² | - |
| 1778040038 | 13.89° C | 84% | 1011 hPa | 0 mm | - | 0 W/m² | - |
* Rain latest hour (hover to see other rain measurements)
** Current wind speed in m/s (hover to see current wind gust speed)